Tiempo cada hora Barlewiczki

Hoy, 13 Mayo, Jueves

Tiempo Temperatura Precipitaciones Viento Presión Humedad
00:00 +13°C° 0 mm 3 mps 751 mmHg 86%
01:00 +12°C° 0 mm 3 mps 750 mmHg 88%
02:00 +12°C° 0 mm 3 mps 750 mmHg 88%
03:00 +11°C° 0 mm 3 mps 750 mmHg 88%
04:00 +12°C° 0 mm 2 mps 749 mmHg 89%
05:00 +13°C° 0 mm 2 mps 749 mmHg 84%
06:00 +13°C° 0 mm 3 mps 749 mmHg 79%
07:00 +14°C° 0 mm 3 mps 749 mmHg 74%
08:00 +17°C° 0 mm 3 mps 749 mmHg 68%
09:00 +18°C° 0 mm 3 mps 749 mmHg 61%
10:00 +19°C° 0 mm 3 mps 748 mmHg 55%
11:00 +20°C° 0 mm 3 mps 748 mmHg 54%
12:00 +20°C° 0 mm 3 mps 747 mmHg 53%
13:00 +21°C° 0 mm 3 mps 747 mmHg 52%
14:00 +20°C° 0.1 mm 3 mps 747 mmHg 59%
15:00 +18°C° 0.1 mm 4 mps 747 mmHg 66%
16:00 +17°C° 0.1 mm 4 mps 747 mmHg 74%
17:00 +16°C° 0.1 mm 3 mps 746 mmHg 78%
18:00 +14°C° 0.1 mm 3 mps 746 mmHg 83%
19:00 +13°C° 0.1 mm 3 mps 746 mmHg 87%
20:00 +13°C° 0 mm 2 mps 746 mmHg 90%
21:00 +12°C° 0 mm 2 mps 746 mmHg 92%
22:00 +10°C° 0 mm 2 mps 746 mmHg 95%
23:00 +9°C° 0 mm 2 mps 746 mmHg 95%

Mañana, 14 Mayo, Viernes

Tiempo Temperatura Precipitaciones Viento Presión Humedad
00:00 +8°C° 0 mm 2 mps 746 mmHg 95%
01:00 +8°C° 0 mm 2 mps 746 mmHg 94%
02:00 +7°C° 0 mm 2 mps 746 mmHg 95%
03:00 +7°C° 0 mm 2 mps 746 mmHg 96%
04:00 +6°C° 0 mm 2 mps 746 mmHg 97%
05:00 +8°C° 0 mm 3 mps 746 mmHg 94%
06:00 +9°C° 0 mm 3 mps 746 mmHg 90%
07:00 +10°C° 0 mm 3 mps 746 mmHg 86%
08:00 +11°C° 0 mm 3 mps 747 mmHg 83%
09:00 +12°C° 0 mm 3 mps 747 mmHg 80%
10:00 +12°C° 0 mm 3 mps 747 mmHg 77%
11:00 +13°C° 0 mm 3 mps 747 mmHg 74%
12:00 +14°C° 0 mm 3 mps 747 mmHg 71%
13:00 +14°C° 0 mm 3 mps 747 mmHg 69%
14:00 +14°C° 0 mm 3 mps 747 mmHg 69%
15:00 +14°C° 0 mm 3 mps 747 mmHg 69%
16:00 +14°C° 0 mm 3 mps 748 mmHg 69%
17:00 +13°C° 0 mm 3 mps 748 mmHg 75%
18:00 +13°C° 0 mm 2 mps 748 mmHg 82%
19:00 +10°C° 0 mm 2 mps 748 mmHg 88%
20:00 +11°C° 0 mm 1 mps 748 mmHg 88%
21:00 +11°C° 0 mm 1 mps 749 mmHg 89%
22:00 +10°C° 0 mm 1 mps 749 mmHg 89%
23:00 +11°C° 0.1 mm 1 mps 749 mmHg 89%

Pasado mañana, 15 Mayo, Sábado

Tiempo Temperatura Precipitaciones Viento Presión Humedad
00:00 +11°C° 0.1 mm 1 mps 749 mmHg 90%
01:00 +11°C° 0.1 mm 1 mps 749 mmHg 90%
02:00 +11°C° 0 mm 1 mps 749 mmHg 91%
03:00 +11°C° 0 mm 1 mps 749 mmHg 92%
04:00 +11°C° 0 mm 1 mps 749 mmHg 93%
05:00 +12°C° 0 mm 2 mps 750 mmHg 93%
06:00 +12°C° 0 mm 2 mps 750 mmHg 92%
07:00 +12°C° 0 mm 2 mps 750 mmHg 92%
08:00 +12°C° 0 mm 2 mps 750 mmHg 91%
09:00 +12°C° 0 mm 3 mps 751 mmHg 90%
10:00 +12°C° 0 mm 3 mps 751 mmHg 89%
11:00 +12°C° 0.1 mm 3 mps 751 mmHg 85%
12:00 +13°C° 0.1 mm 3 mps 751 mmHg 81%
13:00 +14°C° 0.1 mm 4 mps 751 mmHg 78%
14:00 +14°C° 0 mm 3 mps 751 mmHg 73%
15:00 +16°C° 0 mm 2 mps 751 mmHg 69%
16:00 +18°C° 0 mm 1 mps 751 mmHg 64%
17:00 +16°C° 0 mm 2 mps 751 mmHg 70%
18:00 +15°C° 0 mm 2 mps 751 mmHg 75%
19:00 +14°C° 0 mm 2 mps 750 mmHg 81%
20:00 +13°C° 0 mm 2 mps 751 mmHg 82%
21:00 +12°C° 0 mm 2 mps 751 mmHg 83%
22:00 +12°C° 0 mm 2 mps 751 mmHg 84%
23:00 +11°C° 0 mm 3 mps 751 mmHg 85%

16 Mayo, Domingo

Tiempo Temperatura Precipitaciones Viento Presión Humedad
00:00 +11°C° 0 mm 3 mps 751 mmHg 86%
01:00 +11°C° 0 mm 3 mps 751 mmHg 87%
02:00 +11°C° 0.4 mm 3 mps 751 mmHg 90%
03:00 +11°C° 0.4 mm 3 mps 750 mmHg 93%
04:00 +11°C° 0.4 mm 3 mps 750 mmHg 96%
05:00 +11°C° 0.2 mm 3 mps 750 mmHg 94%
06:00 +11°C° 0.2 mm 3 mps 750 mmHg 93%
07:00 +12°C° 0.2 mm 3 mps 750 mmHg 91%
08:00 +13°C° 0.1 mm 3 mps 750 mmHg 87%
09:00 +13°C° 0.1 mm 3 mps 750 mmHg 83%
10:00 +15°C° 0.1 mm 2 mps 750 mmHg 78%
11:00 +14°C° 0.6 mm 3 mps 750 mmHg 79%
12:00 +14°C° 0.6 mm 4 mps 750 mmHg 80%
13:00 +14°C° 0.6 mm 5 mps 750 mmHg 81%
14:00 +14°C° 0.1 mm 4 mps 749 mmHg 78%
15:00 +14°C° 0.1 mm 4 mps 749 mmHg 75%
16:00 +16°C° 0.1 mm 3 mps 749 mmHg 72%
17:00 +14°C° 0 mm 3 mps 749 mmHg 75%
18:00 +14°C° 0 mm 2 mps 749 mmHg 78%
19:00 +13°C° 0 mm 2 mps 749 mmHg 80%
20:00 +12°C° 0 mm 2 mps 749 mmHg 83%
21:00 +10°C° 0 mm 2 mps 749 mmHg 85%
22:00 +9°C° 0 mm 2 mps 750 mmHg 87%
23:00 +9°C° 0 mm 2 mps 750 mmHg 89%

17 Mayo, Lunes

Tiempo Temperatura Precipitaciones Viento Presión Humedad
00:00 +8°C° 0 mm 2 mps 750 mmHg 90%
01:00 +8°C° 0 mm 3 mps 750 mmHg 92%
02:00 +8°C° 0 mm 2 mps 750 mmHg 93%
03:00 +7°C° 0 mm 2 mps 750 mmHg 93%
04:00 +7°C° 0 mm 2 mps 750 mmHg 94%
05:00 +9°C° 0 mm 2 mps 750 mmHg 89%
06:00 +10°C° 0 mm 3 mps 750 mmHg 83%
07:00 +12°C° 0 mm 3 mps 750 mmHg 78%
08:00 +13°C° 0 mm 3 mps 750 mmHg 72%
09:00 +16°C° 0 mm 3 mps 750 mmHg 66%
10:00 +17°C° 0 mm 3 mps 750 mmHg 60%
11:00 +18°C° 0 mm 3 mps 750 mmHg 58%
12:00 +18°C° 0 mm 4 mps 750 mmHg 55%
13:00 +19°C° 0 mm 4 mps 750 mmHg 53%
14:00 +19°C° 0.1 mm 4 mps 750 mmHg 56%
15:00 +19°C° 0.1 mm 4 mps 749 mmHg 59%
16:00 +18°C° 0.1 mm 4 mps 749 mmHg 62%
17:00 +17°C° 0.4 mm 3 mps 749 mmHg 71%
18:00 +14°C° 0.4 mm 3 mps 749 mmHg 79%
19:00 +13°C° 0.4 mm 3 mps 749 mmHg 87%
20:00 +12°C° 0.3 mm 3 mps 749 mmHg 90%
21:00 +12°C° 0.3 mm 2 mps 749 mmHg 92%
22:00 +10°C° 0.3 mm 2 mps 750 mmHg 94%
23:00 +9°C° 0 mm 3 mps 749 mmHg 95%

18 Mayo, Martes

Tiempo Temperatura Precipitaciones Viento Presión Humedad
00:00 +9°C° 0 mm 3 mps 749 mmHg 95%
01:00 +8°C° 0 mm 3 mps 749 mmHg 95%
02:00 +8°C° 0 mm 3 mps 749 mmHg 95%
03:00 +8°C° 0 mm 2 mps 749 mmHg 95%
04:00 +8°C° 0 mm 2 mps 749 mmHg 96%
05:00 +9°C° 0 mm 3 mps 749 mmHg 93%
06:00 +10°C° 0 mm 3 mps 749 mmHg 90%
07:00 +12°C° 0 mm 3 mps 750 mmHg 88%
08:00 +13°C° 0.2 mm 3 mps 750 mmHg 83%
09:00 +14°C° 0.2 mm 3 mps 750 mmHg 77%
10:00 +16°C° 0.2 mm 3 mps 750 mmHg 72%
11:00 +16°C° 0.6 mm 3 mps 750 mmHg 71%
12:00 +16°C° 0.6 mm 3 mps 750 mmHg 71%
13:00 +17°C° 0.6 mm 3 mps 750 mmHg 70%
14:00 +16°C° 0.6 mm 2 mps 750 mmHg 71%
15:00 +16°C° 0.6 mm 2 mps 750 mmHg 72%
16:00 +16°C° 0.6 mm 2 mps 750 mmHg 74%
17:00 +15°C° 0.4 mm 2 mps 750 mmHg 78%
18:00 +14°C° 0.4 mm 2 mps 751 mmHg 83%
19:00 +13°C° 0.4 mm 2 mps 751 mmHg 87%
20:00 +12°C° 0 mm 2 mps 751 mmHg 89%
21:00 +11°C° 0 mm 1 mps 751 mmHg 91%
22:00 +9°C° 0 mm 1 mps 752 mmHg 93%
23:00 +9°C° 0 mm 1 mps 752 mmHg 93%
Mostrar más

Necesitamos Su Consentimiento

Meteoprog y nuestros Proveedores de Servicios pueden almacenar y acceder a sus datos personales como cookies, identificadores de dispositivo u otras tecnologías similares de su dispositivo y procesar dichos datos para personalizar contenido y anuncios, además de ofrecer funciones de redes sociales y analizar el tráfico.

  • Almacenar y/o acceder a información en su dispositivo

    Se puede almacenar o acceder a cookies, identificadores de dispositivo u otra información de su dispositivo para los fines anteriormente indicados.

  • Anuncios y contenido personalizados, medición de anuncios y contenido, percepciones del público, y desarrollo de productos

    Los anuncios y el contenido pueden personalizarse en base a su perfil. Se pueden añadir más datos para personalizar mejor los anuncios y contenidos. Se puede medir el rendimiento de los anuncios y contenidos. Se puede obtener la percepción sobre el público que ha visto los anuncios y contenidos. Dichos datos pueden usarse para desarrollar o mejorar la experiencia del usuario, sistemas y software.

Al hacer clic en ‘Estoy De Acuerdo’ usted permitirá el uso de las cookies, identificadores de dispositivo, balizas web u otras tecnologías similares indicadas. Su configuración puede cambiarse desde el navegador de su dispositivo.

Para ciertos fines, los intereses legítimos pueden ser considerados por encima del consentimiento. Puede leer más sobre ello en nuestra Política de Privacidad y Cookies.